Index of /20260507/WXO-DD/model_gdps/15km/00/153
Name Last modified Size Description
Parent Directory -
20260507T00Z_MSC_GDPS_AirTemp_AGL-120m_LatLon0.15_PT153H.grib2 2026-05-07 04:41 906K
20260507T00Z_MSC_GDPS_AirTemp_AGL-2m_LatLon0.15_PT153H.grib2 2026-05-07 04:41 1.0M
20260507T00Z_MSC_GDPS_AirTemp_AGL-40m_LatLon0.15_PT153H.grib2 2026-05-07 04:41 807K
20260507T00Z_MSC_GDPS_AirTemp_AGL-80m_LatLon0.15_PT153H.grib2 2026-05-07 04:41 915K
20260507T00Z_MSC_GDPS_AirTemp_IsbL-0001_LatLon0.15_PT153H.grib2 2026-05-07 04:41 660K
20260507T00Z_MSC_GDPS_AirTemp_IsbL-0005_LatLon0.15_PT153H.grib2 2026-05-07 04:41 535K
20260507T00Z_MSC_GDPS_AirTemp_IsbL-0010_LatLon0.15_PT153H.grib2 2026-05-07 04:41 702K
20260507T00Z_MSC_GDPS_AirTemp_IsbL-0020_LatLon0.15_PT153H.grib2 2026-05-07 04:41 790K
20260507T00Z_MSC_GDPS_AirTemp_IsbL-0030_LatLon0.15_PT153H.grib2 2026-05-07 04:41 838K
20260507T00Z_MSC_GDPS_AirTemp_IsbL-0050_LatLon0.15_PT153H.grib2 2026-05-07 04:41 879K
20260507T00Z_MSC_GDPS_AirTemp_IsbL-0100_LatLon0.15_PT153H.grib2 2026-05-07 04:41 956K
20260507T00Z_MSC_GDPS_AirTemp_IsbL-0150_LatLon0.15_PT153H.grib2 2026-05-07 04:41 1.0M
20260507T00Z_MSC_GDPS_AirTemp_IsbL-0175_LatLon0.15_PT153H.grib2 2026-05-07 04:41 961K
20260507T00Z_MSC_GDPS_AirTemp_IsbL-0200_LatLon0.15_PT153H.grib2 2026-05-07 04:41 969K
20260507T00Z_MSC_GDPS_AirTemp_IsbL-0225_LatLon0.15_PT153H.grib2 2026-05-07 04:41 967K
20260507T00Z_MSC_GDPS_AirTemp_IsbL-0250_LatLon0.15_PT153H.grib2 2026-05-07 04:41 1.0M
20260507T00Z_MSC_GDPS_AirTemp_IsbL-0275_LatLon0.15_PT153H.grib2 2026-05-07 04:41 1.0M
20260507T00Z_MSC_GDPS_AirTemp_IsbL-0300_LatLon0.15_PT153H.grib2 2026-05-07 04:41 949K
20260507T00Z_MSC_GDPS_AirTemp_IsbL-0350_LatLon0.15_PT153H.grib2 2026-05-07 04:41 935K
20260507T00Z_MSC_GDPS_AirTemp_IsbL-0400_LatLon0.15_PT153H.grib2 2026-05-07 04:41 946K
20260507T00Z_MSC_GDPS_AirTemp_IsbL-0450_LatLon0.15_PT153H.grib2 2026-05-07 04:41 967K
20260507T00Z_MSC_GDPS_AirTemp_IsbL-0500_LatLon0.15_PT153H.grib2 2026-05-07 04:41 1.0M
20260507T00Z_MSC_GDPS_AirTemp_IsbL-0550_LatLon0.15_PT153H.grib2 2026-05-07 04:41 1.0M
20260507T00Z_MSC_GDPS_AirTemp_IsbL-0600_LatLon0.15_PT153H.grib2 2026-05-07 04:41 893K
20260507T00Z_MSC_GDPS_AirTemp_IsbL-0650_LatLon0.15_PT153H.grib2 2026-05-07 04:41 922K
20260507T00Z_MSC_GDPS_AirTemp_IsbL-0700_LatLon0.15_PT153H.grib2 2026-05-07 04:41 956K
20260507T00Z_MSC_GDPS_AirTemp_IsbL-0750_LatLon0.15_PT153H.grib2 2026-05-07 04:41 1.0M
20260507T00Z_MSC_GDPS_AirTemp_IsbL-0800_LatLon0.15_PT153H.grib2 2026-05-07 04:41 1.1M
20260507T00Z_MSC_GDPS_AirTemp_IsbL-0850_LatLon0.15_PT153H.grib2 2026-05-07 04:41 1.1M
20260507T00Z_MSC_GDPS_AirTemp_IsbL-0875_LatLon0.15_PT153H.grib2 2026-05-07 04:41 1.2M
20260507T00Z_MSC_GDPS_AirTemp_IsbL-0900_LatLon0.15_PT153H.grib2 2026-05-07 04:41 1.2M
20260507T00Z_MSC_GDPS_AirTemp_IsbL-0925_LatLon0.15_PT153H.grib2 2026-05-07 04:41 1.1M
20260507T00Z_MSC_GDPS_AirTemp_IsbL-0950_LatLon0.15_PT153H.grib2 2026-05-07 04:41 1.1M
20260507T00Z_MSC_GDPS_AirTemp_IsbL-0970_LatLon0.15_PT153H.grib2 2026-05-07 04:41 1.2M
20260507T00Z_MSC_GDPS_AirTemp_IsbL-0985_LatLon0.15_PT153H.grib2 2026-05-07 04:41 1.1M
20260507T00Z_MSC_GDPS_AirTemp_IsbL-1000_LatLon0.15_PT153H.grib2 2026-05-07 04:41 1.1M
20260507T00Z_MSC_GDPS_AirTemp_IsbL-1015_LatLon0.15_PT153H.grib2 2026-05-07 04:41 1.1M
20260507T00Z_MSC_GDPS_Albedo_Sfc_LatLon0.15_PT153H.grib2 2026-05-07 04:41 242K
20260507T00Z_MSC_GDPS_CAPE_Sfc_LatLon0.15_PT153H.grib2 2026-05-07 04:41 3.8M
20260507T00Z_MSC_GDPS_CIN_Sfc_LatLon0.15_PT153H.grib2 2026-05-07 04:41 2.8M
20260507T00Z_MSC_GDPS_ConvectivePrecip-Accum_Sfc_LatLon0.15_PT153H.grib2 2026-05-07 04:41 3.7M
20260507T00Z_MSC_GDPS_DewPointDepression_AGL-2m_LatLon0.15_PT153H.grib2 2026-05-07 04:41 759K
20260507T00Z_MSC_GDPS_DewPointDepression_IsbL-0010_LatLon0.15_PT153H.grib2 2026-05-07 04:41 65K
20260507T00Z_MSC_GDPS_DewPointDepression_IsbL-0020_LatLon0.15_PT153H.grib2 2026-05-07 04:41 89K
20260507T00Z_MSC_GDPS_DewPointDepression_IsbL-0030_LatLon0.15_PT153H.grib2 2026-05-07 04:41 102K
20260507T00Z_MSC_GDPS_DewPointDepression_IsbL-0050_LatLon0.15_PT153H.grib2 2026-05-07 04:41 371K
20260507T00Z_MSC_GDPS_DewPointDepression_IsbL-0100_LatLon0.15_PT153H.grib2 2026-05-07 04:41 392K
20260507T00Z_MSC_GDPS_DewPointDepression_IsbL-0150_LatLon0.15_PT153H.grib2 2026-05-07 04:41 505K
20260507T00Z_MSC_GDPS_DewPointDepression_IsbL-0175_LatLon0.15_PT153H.grib2 2026-05-07 04:41 600K
20260507T00Z_MSC_GDPS_DewPointDepression_IsbL-0200_LatLon0.15_PT153H.grib2 2026-05-07 04:41 694K
20260507T00Z_MSC_GDPS_DewPointDepression_IsbL-0225_LatLon0.15_PT153H.grib2 2026-05-07 04:41 783K
20260507T00Z_MSC_GDPS_DewPointDepression_IsbL-0250_LatLon0.15_PT153H.grib2 2026-05-07 04:41 880K
20260507T00Z_MSC_GDPS_DewPointDepression_IsbL-0275_LatLon0.15_PT153H.grib2 2026-05-07 04:41 906K
20260507T00Z_MSC_GDPS_DewPointDepression_IsbL-0300_LatLon0.15_PT153H.grib2 2026-05-07 04:41 954K
20260507T00Z_MSC_GDPS_DewPointDepression_IsbL-0350_LatLon0.15_PT153H.grib2 2026-05-07 04:41 1.0M
20260507T00Z_MSC_GDPS_DewPointDepression_IsbL-0400_LatLon0.15_PT153H.grib2 2026-05-07 04:41 1.0M
20260507T00Z_MSC_GDPS_DewPointDepression_IsbL-0450_LatLon0.15_PT153H.grib2 2026-05-07 04:41 1.0M
20260507T00Z_MSC_GDPS_DewPointDepression_IsbL-0500_LatLon0.15_PT153H.grib2 2026-05-07 04:41 1.0M
20260507T00Z_MSC_GDPS_DewPointDepression_IsbL-0550_LatLon0.15_PT153H.grib2 2026-05-07 04:41 1.0M
20260507T00Z_MSC_GDPS_DewPointDepression_IsbL-0600_LatLon0.15_PT153H.grib2 2026-05-07 04:41 1.1M
20260507T00Z_MSC_GDPS_DewPointDepression_IsbL-0650_LatLon0.15_PT153H.grib2 2026-05-07 04:41 1.1M
20260507T00Z_MSC_GDPS_DewPointDepression_IsbL-0700_LatLon0.15_PT153H.grib2 2026-05-07 04:41 1.1M
20260507T00Z_MSC_GDPS_DewPointDepression_IsbL-0750_LatLon0.15_PT153H.grib2 2026-05-07 04:41 1.1M
20260507T00Z_MSC_GDPS_DewPointDepression_IsbL-0800_LatLon0.15_PT153H.grib2 2026-05-07 04:41 1.2M
20260507T00Z_MSC_GDPS_DewPointDepression_IsbL-0850_LatLon0.15_PT153H.grib2 2026-05-07 04:41 1.1M
20260507T00Z_MSC_GDPS_DewPointDepression_IsbL-0875_LatLon0.15_PT153H.grib2 2026-05-07 04:41 1.1M
20260507T00Z_MSC_GDPS_DewPointDepression_IsbL-0900_LatLon0.15_PT153H.grib2 2026-05-07 04:41 1.1M
20260507T00Z_MSC_GDPS_DewPointDepression_IsbL-0925_LatLon0.15_PT153H.grib2 2026-05-07 04:41 1.0M
20260507T00Z_MSC_GDPS_DewPointDepression_IsbL-0950_LatLon0.15_PT153H.grib2 2026-05-07 04:41 1.0M
20260507T00Z_MSC_GDPS_DewPointDepression_IsbL-0970_LatLon0.15_PT153H.grib2 2026-05-07 04:41 1.0M
20260507T00Z_MSC_GDPS_DewPointDepression_IsbL-0985_LatLon0.15_PT153H.grib2 2026-05-07 04:41 1.0M
20260507T00Z_MSC_GDPS_DewPointDepression_IsbL-1000_LatLon0.15_PT153H.grib2 2026-05-07 04:41 959K
20260507T00Z_MSC_GDPS_DewPointDepression_IsbL-1015_LatLon0.15_PT153H.grib2 2026-05-07 04:41 901K
20260507T00Z_MSC_GDPS_DewPoint_AGL-2m_LatLon0.15_PT153H.grib2 2026-05-07 04:41 609K
20260507T00Z_MSC_GDPS_DownwardLongwaveRadiationFlux-Accum_Sfc_LatLon0.15_PT153H.grib2 2026-05-07 04:41 623K
20260507T00Z_MSC_GDPS_DownwardShortwaveRadiationFlux-Accum_Sfc_LatLon0.15_PT153H.grib2 2026-05-07 04:41 801K
20260507T00Z_MSC_GDPS_FreezingRain-Accum3h_Sfc_LatLon0.15_PT153H.grib2 2026-05-07 04:41 59K
20260507T00Z_MSC_GDPS_FreezingRain-Accum_Sfc_LatLon0.15_PT153H.grib2 2026-05-07 04:41 376K
20260507T00Z_MSC_GDPS_GeopotentialHeight_IsbL-0001_LatLon0.15_PT153H.grib2 2026-05-07 04:41 453K
20260507T00Z_MSC_GDPS_GeopotentialHeight_IsbL-0005_LatLon0.15_PT153H.grib2 2026-05-07 04:41 493K
20260507T00Z_MSC_GDPS_GeopotentialHeight_IsbL-0010_LatLon0.15_PT153H.grib2 2026-05-07 04:41 476K
20260507T00Z_MSC_GDPS_GeopotentialHeight_IsbL-0020_LatLon0.15_PT153H.grib2 2026-05-07 04:41 415K
20260507T00Z_MSC_GDPS_GeopotentialHeight_IsbL-0030_LatLon0.15_PT153H.grib2 2026-05-07 04:41 417K
20260507T00Z_MSC_GDPS_GeopotentialHeight_IsbL-0050_LatLon0.15_PT153H.grib2 2026-05-07 04:41 577K
20260507T00Z_MSC_GDPS_GeopotentialHeight_IsbL-0100_LatLon0.15_PT153H.grib2 2026-05-07 04:41 615K
20260507T00Z_MSC_GDPS_GeopotentialHeight_IsbL-0150_LatLon0.15_PT153H.grib2 2026-05-07 04:41 636K
20260507T00Z_MSC_GDPS_GeopotentialHeight_IsbL-0175_LatLon0.15_PT153H.grib2 2026-05-07 04:41 638K
20260507T00Z_MSC_GDPS_GeopotentialHeight_IsbL-0200_LatLon0.15_PT153H.grib2 2026-05-07 04:41 643K
20260507T00Z_MSC_GDPS_GeopotentialHeight_IsbL-0225_LatLon0.15_PT153H.grib2 2026-05-07 04:41 644K
20260507T00Z_MSC_GDPS_GeopotentialHeight_IsbL-0250_LatLon0.15_PT153H.grib2 2026-05-07 04:41 643K
20260507T00Z_MSC_GDPS_GeopotentialHeight_IsbL-0275_LatLon0.15_PT153H.grib2 2026-05-07 04:41 644K
20260507T00Z_MSC_GDPS_GeopotentialHeight_IsbL-0300_LatLon0.15_PT153H.grib2 2026-05-07 04:41 643K
20260507T00Z_MSC_GDPS_GeopotentialHeight_IsbL-0350_LatLon0.15_PT153H.grib2 2026-05-07 04:41 631K
20260507T00Z_MSC_GDPS_GeopotentialHeight_IsbL-0400_LatLon0.15_PT153H.grib2 2026-05-07 04:41 625K
20260507T00Z_MSC_GDPS_GeopotentialHeight_IsbL-0450_LatLon0.15_PT153H.grib2 2026-05-07 04:41 614K
20260507T00Z_MSC_GDPS_GeopotentialHeight_IsbL-0500_LatLon0.15_PT153H.grib2 2026-05-07 04:41 599K
20260507T00Z_MSC_GDPS_GeopotentialHeight_IsbL-0550_LatLon0.15_PT153H.grib2 2026-05-07 04:41 528K
20260507T00Z_MSC_GDPS_GeopotentialHeight_IsbL-0600_LatLon0.15_PT153H.grib2 2026-05-07 04:41 525K
20260507T00Z_MSC_GDPS_GeopotentialHeight_IsbL-0650_LatLon0.15_PT153H.grib2 2026-05-07 04:41 523K
20260507T00Z_MSC_GDPS_GeopotentialHeight_IsbL-0700_LatLon0.15_PT153H.grib2 2026-05-07 04:41 694K
20260507T00Z_MSC_GDPS_GeopotentialHeight_IsbL-0750_LatLon0.15_PT153H.grib2 2026-05-07 04:41 700K
20260507T00Z_MSC_GDPS_GeopotentialHeight_IsbL-0800_LatLon0.15_PT153H.grib2 2026-05-07 04:41 706K
20260507T00Z_MSC_GDPS_GeopotentialHeight_IsbL-0850_LatLon0.15_PT153H.grib2 2026-05-07 04:41 716K
20260507T00Z_MSC_GDPS_GeopotentialHeight_IsbL-0875_LatLon0.15_PT153H.grib2 2026-05-07 04:41 725K
20260507T00Z_MSC_GDPS_GeopotentialHeight_IsbL-0900_LatLon0.15_PT153H.grib2 2026-05-07 04:41 731K
20260507T00Z_MSC_GDPS_GeopotentialHeight_IsbL-0925_LatLon0.15_PT153H.grib2 2026-05-07 04:41 562K
20260507T00Z_MSC_GDPS_GeopotentialHeight_IsbL-0950_LatLon0.15_PT153H.grib2 2026-05-07 04:41 569K
20260507T00Z_MSC_GDPS_GeopotentialHeight_IsbL-0970_LatLon0.15_PT153H.grib2 2026-05-07 04:41 578K
20260507T00Z_MSC_GDPS_GeopotentialHeight_IsbL-0985_LatLon0.15_PT153H.grib2 2026-05-07 04:41 590K
20260507T00Z_MSC_GDPS_GeopotentialHeight_IsbL-1000_LatLon0.15_PT153H.grib2 2026-05-07 04:41 606K
20260507T00Z_MSC_GDPS_GeopotentialHeight_IsbL-1015_LatLon0.15_PT153H.grib2 2026-05-07 04:41 622K
20260507T00Z_MSC_GDPS_Humidex_Sfc_LatLon0.15_PT153H.grib2 2026-05-07 04:41 5.3M
20260507T00Z_MSC_GDPS_IcePellets-Accum3h_Sfc_LatLon0.15_PT153H.grib2 2026-05-07 04:41 34K
20260507T00Z_MSC_GDPS_IcePellets-Accum_Sfc_LatLon0.15_PT153H.grib2 2026-05-07 04:41 179K
20260507T00Z_MSC_GDPS_KIndex_Sfc_LatLon0.15_PT153H.grib2 2026-05-07 04:41 6.5M
20260507T00Z_MSC_GDPS_LatentHeatNetFlux_Sfc_LatLon0.15_PT153H.grib2 2026-05-07 04:41 739K
20260507T00Z_MSC_GDPS_LiftedIndex-MU-VT_IsbL-0500_LatLon0.15_PT153H.grib2 2026-05-07 04:41 5.4M
20260507T00Z_MSC_GDPS_NetLongwaveRadiationFlux-Accum_Sfc_LatLon0.15_PT153H.grib2 2026-05-07 04:41 1.1M
20260507T00Z_MSC_GDPS_NetShortwaveRadiationFlux-Accum_Sfc_LatLon0.15_PT153H.grib2 2026-05-07 04:41 1.0M
20260507T00Z_MSC_GDPS_O3MixingRatio_Sfc_LatLon0.15_PT153H.grib2 2026-05-07 04:56 2.2M
20260507T00Z_MSC_GDPS_O3_EAtm_LatLon0.15_PT153H.grib2 2026-05-07 04:56 2.4M
20260507T00Z_MSC_GDPS_PlanetaryBoundaryLayerHeight_Sfc_LatLon0.15_PT153H.grib2 2026-05-07 04:41 2.5M
20260507T00Z_MSC_GDPS_Precip-Accum3h_Sfc_LatLon0.15_PT153H.grib2 2026-05-07 04:41 3.5M
20260507T00Z_MSC_GDPS_Precip-Accum_Sfc_LatLon0.15_PT153H.grib2 2026-05-07 04:41 5.0M
20260507T00Z_MSC_GDPS_PrecipRate_Sfc_LatLon0.15_PT153H.grib2 2026-05-07 04:41 3.0M
20260507T00Z_MSC_GDPS_PrecipType-Instant_Sfc_LatLon0.15_PT153H.grib2 2026-05-07 04:41 1.6M
20260507T00Z_MSC_GDPS_Pressure_MSL_LatLon0.15_PT153H.grib2 2026-05-07 04:41 840K
20260507T00Z_MSC_GDPS_Pressure_PVU-1.5_LatLon0.15_PT153H.grib2 2026-05-07 04:41 5.8M
20260507T00Z_MSC_GDPS_Pressure_PVU-1_LatLon0.15_PT153H.grib2 2026-05-07 04:41 6.0M
20260507T00Z_MSC_GDPS_Pressure_PVU-2_LatLon0.15_PT153H.grib2 2026-05-07 04:41 6.0M
20260507T00Z_MSC_GDPS_Pressure_Sfc_LatLon0.15_PT153H.grib2 2026-05-07 04:41 1.1M
20260507T00Z_MSC_GDPS_RadiativeTemp_Sfc_LatLon0.15_PT153H.grib2 2026-05-07 04:41 502K
20260507T00Z_MSC_GDPS_Rain-Accum3h_Sfc_LatLon0.15_PT153H.grib2 2026-05-07 04:41 1.9M
20260507T00Z_MSC_GDPS_Rain-Accum_Sfc_LatLon0.15_PT153H.grib2 2026-05-07 04:41 3.9M
20260507T00Z_MSC_GDPS_RelativeHumidity_AGL-2m_LatLon0.15_PT153H.grib2 2026-05-07 04:41 1.0M
20260507T00Z_MSC_GDPS_RelativeHumidity_IsbL-0010_LatLon0.15_PT153H.grib2 2026-05-07 04:41 128K
20260507T00Z_MSC_GDPS_RelativeHumidity_IsbL-0020_LatLon0.15_PT153H.grib2 2026-05-07 04:41 126K
20260507T00Z_MSC_GDPS_RelativeHumidity_IsbL-0030_LatLon0.15_PT153H.grib2 2026-05-07 04:41 192K
20260507T00Z_MSC_GDPS_RelativeHumidity_IsbL-0050_LatLon0.15_PT153H.grib2 2026-05-07 04:41 337K
20260507T00Z_MSC_GDPS_RelativeHumidity_IsbL-0100_LatLon0.15_PT153H.grib2 2026-05-07 04:41 496K
20260507T00Z_MSC_GDPS_RelativeHumidity_IsbL-0150_LatLon0.15_PT153H.grib2 2026-05-07 04:41 680K
20260507T00Z_MSC_GDPS_RelativeHumidity_IsbL-0175_LatLon0.15_PT153H.grib2 2026-05-07 04:41 617K
20260507T00Z_MSC_GDPS_RelativeHumidity_IsbL-0200_LatLon0.15_PT153H.grib2 2026-05-07 04:41 726K
20260507T00Z_MSC_GDPS_RelativeHumidity_IsbL-0225_LatLon0.15_PT153H.grib2 2026-05-07 04:41 806K
20260507T00Z_MSC_GDPS_RelativeHumidity_IsbL-0250_LatLon0.15_PT153H.grib2 2026-05-07 04:41 876K
20260507T00Z_MSC_GDPS_RelativeHumidity_IsbL-0275_LatLon0.15_PT153H.grib2 2026-05-07 04:41 897K
20260507T00Z_MSC_GDPS_RelativeHumidity_IsbL-0300_LatLon0.15_PT153H.grib2 2026-05-07 04:41 943K
20260507T00Z_MSC_GDPS_RelativeHumidity_IsbL-0350_LatLon0.15_PT153H.grib2 2026-05-07 04:41 954K
20260507T00Z_MSC_GDPS_RelativeHumidity_IsbL-0400_LatLon0.15_PT153H.grib2 2026-05-07 04:41 1.0M
20260507T00Z_MSC_GDPS_RelativeHumidity_IsbL-0450_LatLon0.15_PT153H.grib2 2026-05-07 04:41 1.0M
20260507T00Z_MSC_GDPS_RelativeHumidity_IsbL-0500_LatLon0.15_PT153H.grib2 2026-05-07 04:41 1.0M
20260507T00Z_MSC_GDPS_RelativeHumidity_IsbL-0550_LatLon0.15_PT153H.grib2 2026-05-07 04:41 1.0M
20260507T00Z_MSC_GDPS_RelativeHumidity_IsbL-0600_LatLon0.15_PT153H.grib2 2026-05-07 04:41 1.0M
20260507T00Z_MSC_GDPS_RelativeHumidity_IsbL-0650_LatLon0.15_PT153H.grib2 2026-05-07 04:41 1.1M
20260507T00Z_MSC_GDPS_RelativeHumidity_IsbL-0700_LatLon0.15_PT153H.grib2 2026-05-07 04:41 1.1M
20260507T00Z_MSC_GDPS_RelativeHumidity_IsbL-0750_LatLon0.15_PT153H.grib2 2026-05-07 04:41 1.1M
20260507T00Z_MSC_GDPS_RelativeHumidity_IsbL-0800_LatLon0.15_PT153H.grib2 2026-05-07 04:41 1.2M
20260507T00Z_MSC_GDPS_RelativeHumidity_IsbL-0850_LatLon0.15_PT153H.grib2 2026-05-07 04:41 1.2M
20260507T00Z_MSC_GDPS_RelativeHumidity_IsbL-0875_LatLon0.15_PT153H.grib2 2026-05-07 04:41 1.2M
20260507T00Z_MSC_GDPS_RelativeHumidity_IsbL-0900_LatLon0.15_PT153H.grib2 2026-05-07 04:41 1.2M
20260507T00Z_MSC_GDPS_RelativeHumidity_IsbL-0925_LatLon0.15_PT153H.grib2 2026-05-07 04:41 1.2M
20260507T00Z_MSC_GDPS_RelativeHumidity_IsbL-0950_LatLon0.15_PT153H.grib2 2026-05-07 04:41 1.2M
20260507T00Z_MSC_GDPS_RelativeHumidity_IsbL-0970_LatLon0.15_PT153H.grib2 2026-05-07 04:41 1.2M
20260507T00Z_MSC_GDPS_RelativeHumidity_IsbL-0985_LatLon0.15_PT153H.grib2 2026-05-07 04:41 1.1M
20260507T00Z_MSC_GDPS_RelativeHumidity_IsbL-1000_LatLon0.15_PT153H.grib2 2026-05-07 04:41 1.1M
20260507T00Z_MSC_GDPS_RelativeHumidity_IsbL-1015_LatLon0.15_PT153H.grib2 2026-05-07 04:41 1.0M
20260507T00Z_MSC_GDPS_Runoff-Accum_Sfc_LatLon0.15_PT153H.grib2 2026-05-07 04:41 115K
20260507T00Z_MSC_GDPS_SensibleHeatNetFlux_Sfc_LatLon0.15_PT153H.grib2 2026-05-07 04:41 666K
20260507T00Z_MSC_GDPS_ShowalterIndex_IsbL-0500_LatLon0.15_PT153H.grib2 2026-05-07 04:41 6.2M
20260507T00Z_MSC_GDPS_Snow-Accum3h_Sfc_LatLon0.15_PT153H.grib2 2026-05-07 04:41 1.1M
20260507T00Z_MSC_GDPS_Snow-Accum_Sfc_LatLon0.15_PT153H.grib2 2026-05-07 04:41 2.2M
20260507T00Z_MSC_GDPS_SnowDepth_Sfc_LatLon0.15_PT153H.grib2 2026-05-07 04:41 1.7M
20260507T00Z_MSC_GDPS_SoilTemp_DBS-0to10cm_LatLon0.15_PT153H.grib2 2026-05-07 04:41 513K
20260507T00Z_MSC_GDPS_SoilTemp_Sfc_LatLon0.15_PT153H.grib2 2026-05-07 04:41 596K
20260507T00Z_MSC_GDPS_SoilVolumetricWaterContent_DBS-0to10cm_LatLon0.15_PT153H.grib2 2026-05-07 04:41 603K
20260507T00Z_MSC_GDPS_SoilVolumetricWaterContent_DBS-0to1cm_LatLon0.15_PT153H.grib2 2026-05-07 04:41 645K
20260507T00Z_MSC_GDPS_SpecificHumidity_AGL-120m_LatLon0.15_PT153H.grib2 2026-05-07 04:41 1.1M
20260507T00Z_MSC_GDPS_SpecificHumidity_AGL-2m_LatLon0.15_PT153H.grib2 2026-05-07 04:41 1.2M
20260507T00Z_MSC_GDPS_SpecificHumidity_AGL-40m_LatLon0.15_PT153H.grib2 2026-05-07 04:41 1.1M
20260507T00Z_MSC_GDPS_SpecificHumidity_AGL-80m_LatLon0.15_PT153H.grib2 2026-05-07 04:41 1.1M
20260507T00Z_MSC_GDPS_SpecificHumidity_IsbL-0001_LatLon0.15_PT153H.grib2 2026-05-07 04:41 1.2M
20260507T00Z_MSC_GDPS_SpecificHumidity_IsbL-0005_LatLon0.15_PT153H.grib2 2026-05-07 04:41 1.1M
20260507T00Z_MSC_GDPS_SpecificHumidity_IsbL-0010_LatLon0.15_PT153H.grib2 2026-05-07 04:41 1.2M
20260507T00Z_MSC_GDPS_SpecificHumidity_IsbL-0020_LatLon0.15_PT153H.grib2 2026-05-07 04:41 1.2M
20260507T00Z_MSC_GDPS_SpecificHumidity_IsbL-0030_LatLon0.15_PT153H.grib2 2026-05-07 04:41 1.2M
20260507T00Z_MSC_GDPS_SpecificHumidity_IsbL-0050_LatLon0.15_PT153H.grib2 2026-05-07 04:41 1.5M
20260507T00Z_MSC_GDPS_SpecificHumidity_IsbL-0100_LatLon0.15_PT153H.grib2 2026-05-07 04:41 1.2M
20260507T00Z_MSC_GDPS_SpecificHumidity_IsbL-0150_LatLon0.15_PT153H.grib2 2026-05-07 04:41 1.3M
20260507T00Z_MSC_GDPS_SpecificHumidity_IsbL-0175_LatLon0.15_PT153H.grib2 2026-05-07 04:41 1.3M
20260507T00Z_MSC_GDPS_SpecificHumidity_IsbL-0200_LatLon0.15_PT153H.grib2 2026-05-07 04:41 1.1M
20260507T00Z_MSC_GDPS_SpecificHumidity_IsbL-0225_LatLon0.15_PT153H.grib2 2026-05-07 04:41 1.3M
20260507T00Z_MSC_GDPS_SpecificHumidity_IsbL-0250_LatLon0.15_PT153H.grib2 2026-05-07 04:41 1.2M
20260507T00Z_MSC_GDPS_SpecificHumidity_IsbL-0275_LatLon0.15_PT153H.grib2 2026-05-07 04:41 1.1M
20260507T00Z_MSC_GDPS_SpecificHumidity_IsbL-0300_LatLon0.15_PT153H.grib2 2026-05-07 04:41 1.3M
20260507T00Z_MSC_GDPS_SpecificHumidity_IsbL-0350_LatLon0.15_PT153H.grib2 2026-05-07 04:41 1.3M
20260507T00Z_MSC_GDPS_SpecificHumidity_IsbL-0400_LatLon0.15_PT153H.grib2 2026-05-07 04:41 1.5M
20260507T00Z_MSC_GDPS_SpecificHumidity_IsbL-0450_LatLon0.15_PT153H.grib2 2026-05-07 04:41 1.6M
20260507T00Z_MSC_GDPS_SpecificHumidity_IsbL-0500_LatLon0.15_PT153H.grib2 2026-05-07 04:41 1.5M
20260507T00Z_MSC_GDPS_SpecificHumidity_IsbL-0550_LatLon0.15_PT153H.grib2 2026-05-07 04:41 1.6M
20260507T00Z_MSC_GDPS_SpecificHumidity_IsbL-0600_LatLon0.15_PT153H.grib2 2026-05-07 04:41 1.8M
20260507T00Z_MSC_GDPS_SpecificHumidity_IsbL-0650_LatLon0.15_PT153H.grib2 2026-05-07 04:41 1.6M
20260507T00Z_MSC_GDPS_SpecificHumidity_IsbL-0700_LatLon0.15_PT153H.grib2 2026-05-07 04:41 1.7M
20260507T00Z_MSC_GDPS_SpecificHumidity_IsbL-0750_LatLon0.15_PT153H.grib2 2026-05-07 04:41 1.8M
20260507T00Z_MSC_GDPS_SpecificHumidity_IsbL-0800_LatLon0.15_PT153H.grib2 2026-05-07 04:41 1.9M
20260507T00Z_MSC_GDPS_SpecificHumidity_IsbL-0850_LatLon0.15_PT153H.grib2 2026-05-07 04:41 2.0M
20260507T00Z_MSC_GDPS_SpecificHumidity_IsbL-0875_LatLon0.15_PT153H.grib2 2026-05-07 04:41 2.0M
20260507T00Z_MSC_GDPS_SpecificHumidity_IsbL-0900_LatLon0.15_PT153H.grib2 2026-05-07 04:41 1.9M
20260507T00Z_MSC_GDPS_SpecificHumidity_IsbL-0925_LatLon0.15_PT153H.grib2 2026-05-07 04:41 1.6M
20260507T00Z_MSC_GDPS_SpecificHumidity_IsbL-0950_LatLon0.15_PT153H.grib2 2026-05-07 04:41 1.6M
20260507T00Z_MSC_GDPS_SpecificHumidity_IsbL-0970_LatLon0.15_PT153H.grib2 2026-05-07 04:41 1.6M
20260507T00Z_MSC_GDPS_SpecificHumidity_IsbL-0985_LatLon0.15_PT153H.grib2 2026-05-07 04:41 1.6M
20260507T00Z_MSC_GDPS_SpecificHumidity_IsbL-1000_LatLon0.15_PT153H.grib2 2026-05-07 04:41 1.5M
20260507T00Z_MSC_GDPS_SpecificHumidity_IsbL-1015_LatLon0.15_PT153H.grib2 2026-05-07 04:41 1.5M
20260507T00Z_MSC_GDPS_SpecificHumidity_Sfc_LatLon0.15_PT153H.grib2 2026-05-07 04:41 695K
20260507T00Z_MSC_GDPS_Thickness_IsbL-0850to0700_LatLon0.15_PT153H.grib2 2026-05-07 04:41 471K
20260507T00Z_MSC_GDPS_Thickness_IsbL-1000to0500_LatLon0.15_PT153H.grib2 2026-05-07 04:41 377K
20260507T00Z_MSC_GDPS_Thickness_IsbL-1000to0850_LatLon0.15_PT153H.grib2 2026-05-07 04:41 492K
20260507T00Z_MSC_GDPS_TotalCloudCover_Sfc_LatLon0.15_PT153H.grib2 2026-05-07 04:41 836K
20260507T00Z_MSC_GDPS_TotalTotalsIndex_Sfc_LatLon0.15_PT153H.grib2 2026-05-07 04:41 6.2M
20260507T00Z_MSC_GDPS_UVIndex-ClearSky_Sfc_LatLon0.15_PT153H.grib2 2026-05-07 04:56 1.1M
20260507T00Z_MSC_GDPS_UVIndex_Sfc_LatLon0.15_PT153H.grib2 2026-05-07 04:56 1.5M
20260507T00Z_MSC_GDPS_UpwardLongwaveRadiationFlux_NTAtm_LatLon0.15_PT153H.grib2 2026-05-07 04:41 849K
20260507T00Z_MSC_GDPS_VerticalVelocity_IsbL-0500_LatLon0.15_PT153H.grib2 2026-05-07 04:41 1.3M
20260507T00Z_MSC_GDPS_VerticalVelocity_IsbL-0700_LatLon0.15_PT153H.grib2 2026-05-07 04:41 1.4M
20260507T00Z_MSC_GDPS_VerticalVelocity_IsbL-0850_LatLon0.15_PT153H.grib2 2026-05-07 04:41 1.3M
20260507T00Z_MSC_GDPS_WindChill_Sfc_LatLon0.15_PT153H.grib2 2026-05-07 04:41 5.3M
20260507T00Z_MSC_GDPS_WindDir_AGL-10m_LatLon0.15_PT153H.grib2 2026-05-07 04:41 1.3M
20260507T00Z_MSC_GDPS_WindDir_AGL-120m_LatLon0.15_PT153H.grib2 2026-05-07 04:41 1.3M
20260507T00Z_MSC_GDPS_WindDir_AGL-40m_LatLon0.15_PT153H.grib2 2026-05-07 04:41 1.4M
20260507T00Z_MSC_GDPS_WindDir_AGL-80m_LatLon0.15_PT153H.grib2 2026-05-07 04:41 1.3M
20260507T00Z_MSC_GDPS_WindDir_IsbL-0001_LatLon0.15_PT153H.grib2 2026-05-07 04:41 645K
20260507T00Z_MSC_GDPS_WindDir_IsbL-0005_LatLon0.15_PT153H.grib2 2026-05-07 04:41 792K
20260507T00Z_MSC_GDPS_WindDir_IsbL-0010_LatLon0.15_PT153H.grib2 2026-05-07 04:41 841K
20260507T00Z_MSC_GDPS_WindDir_IsbL-0020_LatLon0.15_PT153H.grib2 2026-05-07 04:41 932K
20260507T00Z_MSC_GDPS_WindDir_IsbL-0030_LatLon0.15_PT153H.grib2 2026-05-07 04:41 966K
20260507T00Z_MSC_GDPS_WindDir_IsbL-0050_LatLon0.15_PT153H.grib2 2026-05-07 04:41 956K
20260507T00Z_MSC_GDPS_WindDir_IsbL-0100_LatLon0.15_PT153H.grib2 2026-05-07 04:41 1.0M
20260507T00Z_MSC_GDPS_WindDir_IsbL-0150_LatLon0.15_PT153H.grib2 2026-05-07 04:41 1.0M
20260507T00Z_MSC_GDPS_WindDir_IsbL-0175_LatLon0.15_PT153H.grib2 2026-05-07 04:41 1.1M
20260507T00Z_MSC_GDPS_WindDir_IsbL-0200_LatLon0.15_PT153H.grib2 2026-05-07 04:41 1.1M
20260507T00Z_MSC_GDPS_WindDir_IsbL-0225_LatLon0.15_PT153H.grib2 2026-05-07 04:41 1.1M
20260507T00Z_MSC_GDPS_WindDir_IsbL-0250_LatLon0.15_PT153H.grib2 2026-05-07 04:41 1.1M
20260507T00Z_MSC_GDPS_WindDir_IsbL-0275_LatLon0.15_PT153H.grib2 2026-05-07 04:41 1.2M
20260507T00Z_MSC_GDPS_WindDir_IsbL-0300_LatLon0.15_PT153H.grib2 2026-05-07 04:41 1.2M
20260507T00Z_MSC_GDPS_WindDir_IsbL-0350_LatLon0.15_PT153H.grib2 2026-05-07 04:41 1.3M
20260507T00Z_MSC_GDPS_WindDir_IsbL-0400_LatLon0.15_PT153H.grib2 2026-05-07 04:41 1.3M
20260507T00Z_MSC_GDPS_WindDir_IsbL-0450_LatLon0.15_PT153H.grib2 2026-05-07 04:41 1.3M
20260507T00Z_MSC_GDPS_WindDir_IsbL-0500_LatLon0.15_PT153H.grib2 2026-05-07 04:41 1.4M
20260507T00Z_MSC_GDPS_WindDir_IsbL-0550_LatLon0.15_PT153H.grib2 2026-05-07 04:41 1.4M
20260507T00Z_MSC_GDPS_WindDir_IsbL-0600_LatLon0.15_PT153H.grib2 2026-05-07 04:41 1.4M
20260507T00Z_MSC_GDPS_WindDir_IsbL-0650_LatLon0.15_PT153H.grib2 2026-05-07 04:41 1.5M
20260507T00Z_MSC_GDPS_WindDir_IsbL-0700_LatLon0.15_PT153H.grib2 2026-05-07 04:41 1.6M
20260507T00Z_MSC_GDPS_WindDir_IsbL-0750_LatLon0.15_PT153H.grib2 2026-05-07 04:41 1.7M
20260507T00Z_MSC_GDPS_WindDir_IsbL-0800_LatLon0.15_PT153H.grib2 2026-05-07 04:41 1.8M
20260507T00Z_MSC_GDPS_WindDir_IsbL-0850_LatLon0.15_PT153H.grib2 2026-05-07 04:41 1.9M
20260507T00Z_MSC_GDPS_WindDir_IsbL-0875_LatLon0.15_PT153H.grib2 2026-05-07 04:41 1.9M
20260507T00Z_MSC_GDPS_WindDir_IsbL-0900_LatLon0.15_PT153H.grib2 2026-05-07 04:41 1.9M
20260507T00Z_MSC_GDPS_WindDir_IsbL-0925_LatLon0.15_PT153H.grib2 2026-05-07 04:41 1.9M
20260507T00Z_MSC_GDPS_WindDir_IsbL-0950_LatLon0.15_PT153H.grib2 2026-05-07 04:41 1.9M
20260507T00Z_MSC_GDPS_WindDir_IsbL-0970_LatLon0.15_PT153H.grib2 2026-05-07 04:41 1.9M
20260507T00Z_MSC_GDPS_WindDir_IsbL-0985_LatLon0.15_PT153H.grib2 2026-05-07 04:41 2.0M
20260507T00Z_MSC_GDPS_WindDir_IsbL-1000_LatLon0.15_PT153H.grib2 2026-05-07 04:41 2.0M
20260507T00Z_MSC_GDPS_WindDir_IsbL-1015_LatLon0.15_PT153H.grib2 2026-05-07 04:41 2.0M
20260507T00Z_MSC_GDPS_WindGust-Max_AGL-10m_LatLon0.15_PT153H.grib2 2026-05-07 04:41 2.2M
20260507T00Z_MSC_GDPS_WindGust-Min_AGL-10m_LatLon0.15_PT153H.grib2 2026-05-07 04:41 2.2M
20260507T00Z_MSC_GDPS_WindGust_AGL-10m_LatLon0.15_PT153H.grib2 2026-05-07 04:41 2.2M
20260507T00Z_MSC_GDPS_WindSpeed_AGL-10m_LatLon0.15_PT153H.grib2 2026-05-07 04:41 1.1M
20260507T00Z_MSC_GDPS_WindSpeed_AGL-120m_LatLon0.15_PT153H.grib2 2026-05-07 04:41 1.2M
20260507T00Z_MSC_GDPS_WindSpeed_AGL-40m_LatLon0.15_PT153H.grib2 2026-05-07 04:41 1.2M
20260507T00Z_MSC_GDPS_WindSpeed_AGL-80m_LatLon0.15_PT153H.grib2 2026-05-07 04:41 1.2M
20260507T00Z_MSC_GDPS_WindSpeed_IsbL-0001_LatLon0.15_PT153H.grib2 2026-05-07 04:41 502K
20260507T00Z_MSC_GDPS_WindSpeed_IsbL-0005_LatLon0.15_PT153H.grib2 2026-05-07 04:41 694K
20260507T00Z_MSC_GDPS_WindSpeed_IsbL-0010_LatLon0.15_PT153H.grib2 2026-05-07 04:41 705K
20260507T00Z_MSC_GDPS_WindSpeed_IsbL-0020_LatLon0.15_PT153H.grib2 2026-05-07 04:41 665K
20260507T00Z_MSC_GDPS_WindSpeed_IsbL-0030_LatLon0.15_PT153H.grib2 2026-05-07 04:41 671K
20260507T00Z_MSC_GDPS_WindSpeed_IsbL-0050_LatLon0.15_PT153H.grib2 2026-05-07 04:41 892K
20260507T00Z_MSC_GDPS_WindSpeed_IsbL-0100_LatLon0.15_PT153H.grib2 2026-05-07 04:41 1.1M
20260507T00Z_MSC_GDPS_WindSpeed_IsbL-0150_LatLon0.15_PT153H.grib2 2026-05-07 04:41 932K
20260507T00Z_MSC_GDPS_WindSpeed_IsbL-0175_LatLon0.15_PT153H.grib2 2026-05-07 04:41 1.0M
20260507T00Z_MSC_GDPS_WindSpeed_IsbL-0200_LatLon0.15_PT153H.grib2 2026-05-07 04:41 1.1M
20260507T00Z_MSC_GDPS_WindSpeed_IsbL-0225_LatLon0.15_PT153H.grib2 2026-05-07 04:41 1.1M
20260507T00Z_MSC_GDPS_WindSpeed_IsbL-0250_LatLon0.15_PT153H.grib2 2026-05-07 04:41 1.1M
20260507T00Z_MSC_GDPS_WindSpeed_IsbL-0275_LatLon0.15_PT153H.grib2 2026-05-07 04:41 1.1M
20260507T00Z_MSC_GDPS_WindSpeed_IsbL-0300_LatLon0.15_PT153H.grib2 2026-05-07 04:41 1.1M
20260507T00Z_MSC_GDPS_WindSpeed_IsbL-0350_LatLon0.15_PT153H.grib2 2026-05-07 04:41 1.1M
20260507T00Z_MSC_GDPS_WindSpeed_IsbL-0400_LatLon0.15_PT153H.grib2 2026-05-07 04:41 1.1M
20260507T00Z_MSC_GDPS_WindSpeed_IsbL-0450_LatLon0.15_PT153H.grib2 2026-05-07 04:41 1.1M
20260507T00Z_MSC_GDPS_WindSpeed_IsbL-0500_LatLon0.15_PT153H.grib2 2026-05-07 04:41 1.1M
20260507T00Z_MSC_GDPS_WindSpeed_IsbL-0550_LatLon0.15_PT153H.grib2 2026-05-07 04:41 1.1M
20260507T00Z_MSC_GDPS_WindSpeed_IsbL-0600_LatLon0.15_PT153H.grib2 2026-05-07 04:41 1.4M
20260507T00Z_MSC_GDPS_WindSpeed_IsbL-0650_LatLon0.15_PT153H.grib2 2026-05-07 04:41 1.4M
20260507T00Z_MSC_GDPS_WindSpeed_IsbL-0700_LatLon0.15_PT153H.grib2 2026-05-07 04:41 1.2M
20260507T00Z_MSC_GDPS_WindSpeed_IsbL-0750_LatLon0.15_PT153H.grib2 2026-05-07 04:41 1.3M
20260507T00Z_MSC_GDPS_WindSpeed_IsbL-0800_LatLon0.15_PT153H.grib2 2026-05-07 04:41 1.7M
20260507T00Z_MSC_GDPS_WindSpeed_IsbL-0850_LatLon0.15_PT153H.grib2 2026-05-07 04:41 1.7M
20260507T00Z_MSC_GDPS_WindSpeed_IsbL-0875_LatLon0.15_PT153H.grib2 2026-05-07 04:41 1.8M
20260507T00Z_MSC_GDPS_WindSpeed_IsbL-0900_LatLon0.15_PT153H.grib2 2026-05-07 04:41 1.8M
20260507T00Z_MSC_GDPS_WindSpeed_IsbL-0925_LatLon0.15_PT153H.grib2 2026-05-07 04:41 1.9M
20260507T00Z_MSC_GDPS_WindSpeed_IsbL-0950_LatLon0.15_PT153H.grib2 2026-05-07 04:41 1.9M
20260507T00Z_MSC_GDPS_WindSpeed_IsbL-0970_LatLon0.15_PT153H.grib2 2026-05-07 04:41 1.9M
20260507T00Z_MSC_GDPS_WindSpeed_IsbL-0985_LatLon0.15_PT153H.grib2 2026-05-07 04:41 1.9M
20260507T00Z_MSC_GDPS_WindSpeed_IsbL-1000_LatLon0.15_PT153H.grib2 2026-05-07 04:41 1.8M
20260507T00Z_MSC_GDPS_WindSpeed_IsbL-1015_LatLon0.15_PT153H.grib2 2026-05-07 04:41 1.8M
20260507T00Z_MSC_GDPS_WindU_AGL-10m_LatLon0.15_PT153H.grib2 2026-05-07 04:41 1.3M
20260507T00Z_MSC_GDPS_WindU_AGL-120m_LatLon0.15_PT153H.grib2 2026-05-07 04:41 1.0M
20260507T00Z_MSC_GDPS_WindU_AGL-40m_LatLon0.15_PT153H.grib2 2026-05-07 04:41 959K
20260507T00Z_MSC_GDPS_WindU_AGL-80m_LatLon0.15_PT153H.grib2 2026-05-07 04:41 1.0M
20260507T00Z_MSC_GDPS_WindU_IsbL-0001_LatLon0.15_PT153H.grib2 2026-05-07 04:41 510K
20260507T00Z_MSC_GDPS_WindU_IsbL-0005_LatLon0.15_PT153H.grib2 2026-05-07 04:41 691K
20260507T00Z_MSC_GDPS_WindU_IsbL-0010_LatLon0.15_PT153H.grib2 2026-05-07 04:41 703K
20260507T00Z_MSC_GDPS_WindU_IsbL-0020_LatLon0.15_PT153H.grib2 2026-05-07 04:41 731K
20260507T00Z_MSC_GDPS_WindU_IsbL-0030_LatLon0.15_PT153H.grib2 2026-05-07 04:41 738K
20260507T00Z_MSC_GDPS_WindU_IsbL-0050_LatLon0.15_PT153H.grib2 2026-05-07 04:41 761K
20260507T00Z_MSC_GDPS_WindU_IsbL-0100_LatLon0.15_PT153H.grib2 2026-05-07 04:41 922K
20260507T00Z_MSC_GDPS_WindU_IsbL-0150_LatLon0.15_PT153H.grib2 2026-05-07 04:41 1.0M
20260507T00Z_MSC_GDPS_WindU_IsbL-0175_LatLon0.15_PT153H.grib2 2026-05-07 04:41 1.0M
20260507T00Z_MSC_GDPS_WindU_IsbL-0200_LatLon0.15_PT153H.grib2 2026-05-07 04:41 844K
20260507T00Z_MSC_GDPS_WindU_IsbL-0225_LatLon0.15_PT153H.grib2 2026-05-07 04:41 855K
20260507T00Z_MSC_GDPS_WindU_IsbL-0250_LatLon0.15_PT153H.grib2 2026-05-07 04:41 856K
20260507T00Z_MSC_GDPS_WindU_IsbL-0275_LatLon0.15_PT153H.grib2 2026-05-07 04:41 884K
20260507T00Z_MSC_GDPS_WindU_IsbL-0300_LatLon0.15_PT153H.grib2 2026-05-07 04:41 875K
20260507T00Z_MSC_GDPS_WindU_IsbL-0350_LatLon0.15_PT153H.grib2 2026-05-07 04:41 889K
20260507T00Z_MSC_GDPS_WindU_IsbL-0400_LatLon0.15_PT153H.grib2 2026-05-07 04:41 1.1M
20260507T00Z_MSC_GDPS_WindU_IsbL-0450_LatLon0.15_PT153H.grib2 2026-05-07 04:41 1.1M
20260507T00Z_MSC_GDPS_WindU_IsbL-0500_LatLon0.15_PT153H.grib2 2026-05-07 04:41 1.1M
20260507T00Z_MSC_GDPS_WindU_IsbL-0550_LatLon0.15_PT153H.grib2 2026-05-07 04:41 1.1M
20260507T00Z_MSC_GDPS_WindU_IsbL-0600_LatLon0.15_PT153H.grib2 2026-05-07 04:41 1.1M
20260507T00Z_MSC_GDPS_WindU_IsbL-0650_LatLon0.15_PT153H.grib2 2026-05-07 04:41 1.2M
20260507T00Z_MSC_GDPS_WindU_IsbL-0700_LatLon0.15_PT153H.grib2 2026-05-07 04:41 1.2M
20260507T00Z_MSC_GDPS_WindU_IsbL-0750_LatLon0.15_PT153H.grib2 2026-05-07 04:41 1.3M
20260507T00Z_MSC_GDPS_WindU_IsbL-0800_LatLon0.15_PT153H.grib2 2026-05-07 04:41 1.4M
20260507T00Z_MSC_GDPS_WindU_IsbL-0850_LatLon0.15_PT153H.grib2 2026-05-07 04:41 1.4M
20260507T00Z_MSC_GDPS_WindU_IsbL-0875_LatLon0.15_PT153H.grib2 2026-05-07 04:41 1.4M
20260507T00Z_MSC_GDPS_WindU_IsbL-0900_LatLon0.15_PT153H.grib2 2026-05-07 04:41 1.5M
20260507T00Z_MSC_GDPS_WindU_IsbL-0925_LatLon0.15_PT153H.grib2 2026-05-07 04:41 1.4M
20260507T00Z_MSC_GDPS_WindU_IsbL-0950_LatLon0.15_PT153H.grib2 2026-05-07 04:41 1.4M
20260507T00Z_MSC_GDPS_WindU_IsbL-0970_LatLon0.15_PT153H.grib2 2026-05-07 04:41 1.4M
20260507T00Z_MSC_GDPS_WindU_IsbL-0985_LatLon0.15_PT153H.grib2 2026-05-07 04:41 1.4M
20260507T00Z_MSC_GDPS_WindU_IsbL-1000_LatLon0.15_PT153H.grib2 2026-05-07 04:41 1.4M
20260507T00Z_MSC_GDPS_WindU_IsbL-1015_LatLon0.15_PT153H.grib2 2026-05-07 04:41 1.3M
20260507T00Z_MSC_GDPS_WindV_AGL-10m_LatLon0.15_PT153H.grib2 2026-05-07 04:41 1.3M
20260507T00Z_MSC_GDPS_WindV_AGL-120m_LatLon0.15_PT153H.grib2 2026-05-07 04:41 1.0M
20260507T00Z_MSC_GDPS_WindV_AGL-40m_LatLon0.15_PT153H.grib2 2026-05-07 04:41 956K
20260507T00Z_MSC_GDPS_WindV_AGL-80m_LatLon0.15_PT153H.grib2 2026-05-07 04:41 961K
20260507T00Z_MSC_GDPS_WindV_IsbL-0001_LatLon0.15_PT153H.grib2 2026-05-07 04:41 566K
20260507T00Z_MSC_GDPS_WindV_IsbL-0005_LatLon0.15_PT153H.grib2 2026-05-07 04:41 613K
20260507T00Z_MSC_GDPS_WindV_IsbL-0010_LatLon0.15_PT153H.grib2 2026-05-07 04:41 633K
20260507T00Z_MSC_GDPS_WindV_IsbL-0020_LatLon0.15_PT153H.grib2 2026-05-07 04:41 857K
20260507T00Z_MSC_GDPS_WindV_IsbL-0030_LatLon0.15_PT153H.grib2 2026-05-07 04:41 861K
20260507T00Z_MSC_GDPS_WindV_IsbL-0050_LatLon0.15_PT153H.grib2 2026-05-07 04:41 895K
20260507T00Z_MSC_GDPS_WindV_IsbL-0100_LatLon0.15_PT153H.grib2 2026-05-07 04:41 849K
20260507T00Z_MSC_GDPS_WindV_IsbL-0150_LatLon0.15_PT153H.grib2 2026-05-07 04:41 1.0M
20260507T00Z_MSC_GDPS_WindV_IsbL-0175_LatLon0.15_PT153H.grib2 2026-05-07 04:41 1.0M
20260507T00Z_MSC_GDPS_WindV_IsbL-0200_LatLon0.15_PT153H.grib2 2026-05-07 04:41 1.0M
20260507T00Z_MSC_GDPS_WindV_IsbL-0225_LatLon0.15_PT153H.grib2 2026-05-07 04:41 850K
20260507T00Z_MSC_GDPS_WindV_IsbL-0250_LatLon0.15_PT153H.grib2 2026-05-07 04:41 851K
20260507T00Z_MSC_GDPS_WindV_IsbL-0275_LatLon0.15_PT153H.grib2 2026-05-07 04:41 936K
20260507T00Z_MSC_GDPS_WindV_IsbL-0300_LatLon0.15_PT153H.grib2 2026-05-07 04:41 928K
20260507T00Z_MSC_GDPS_WindV_IsbL-0350_LatLon0.15_PT153H.grib2 2026-05-07 04:41 942K
20260507T00Z_MSC_GDPS_WindV_IsbL-0400_LatLon0.15_PT153H.grib2 2026-05-07 04:41 881K
20260507T00Z_MSC_GDPS_WindV_IsbL-0450_LatLon0.15_PT153H.grib2 2026-05-07 04:41 882K
20260507T00Z_MSC_GDPS_WindV_IsbL-0500_LatLon0.15_PT153H.grib2 2026-05-07 04:41 886K
20260507T00Z_MSC_GDPS_WindV_IsbL-0550_LatLon0.15_PT153H.grib2 2026-05-07 04:41 1.1M
20260507T00Z_MSC_GDPS_WindV_IsbL-0600_LatLon0.15_PT153H.grib2 2026-05-07 04:41 1.1M
20260507T00Z_MSC_GDPS_WindV_IsbL-0650_LatLon0.15_PT153H.grib2 2026-05-07 04:41 1.2M
20260507T00Z_MSC_GDPS_WindV_IsbL-0700_LatLon0.15_PT153H.grib2 2026-05-07 04:41 1.2M
20260507T00Z_MSC_GDPS_WindV_IsbL-0750_LatLon0.15_PT153H.grib2 2026-05-07 04:41 1.3M
20260507T00Z_MSC_GDPS_WindV_IsbL-0800_LatLon0.15_PT153H.grib2 2026-05-07 04:41 1.3M
20260507T00Z_MSC_GDPS_WindV_IsbL-0850_LatLon0.15_PT153H.grib2 2026-05-07 04:41 1.4M
20260507T00Z_MSC_GDPS_WindV_IsbL-0875_LatLon0.15_PT153H.grib2 2026-05-07 04:41 1.4M
20260507T00Z_MSC_GDPS_WindV_IsbL-0900_LatLon0.15_PT153H.grib2 2026-05-07 04:41 1.4M
20260507T00Z_MSC_GDPS_WindV_IsbL-0925_LatLon0.15_PT153H.grib2 2026-05-07 04:41 1.4M
20260507T00Z_MSC_GDPS_WindV_IsbL-0950_LatLon0.15_PT153H.grib2 2026-05-07 04:41 1.4M
20260507T00Z_MSC_GDPS_WindV_IsbL-0970_LatLon0.15_PT153H.grib2 2026-05-07 04:41 1.4M
20260507T00Z_MSC_GDPS_WindV_IsbL-0985_LatLon0.15_PT153H.grib2 2026-05-07 04:41 1.4M
20260507T00Z_MSC_GDPS_WindV_IsbL-1000_LatLon0.15_PT153H.grib2 2026-05-07 04:41 1.4M
20260507T00Z_MSC_GDPS_WindV_IsbL-1015_LatLon0.15_PT153H.grib2 2026-05-07 04:41 1.3M